Regional Weather Roundup
Issued by NWS Albany, NY

Home | Current Version | Previous Version | Text Only | Print | Product List | Glossary On
Versions: 1 2 3 4 5 6 7 8 9 10 11 12 13 14 15 16 17 18 19 20 21 22 23 24 25 26 27 28
000
ASUS41 KALY 300010
RWRALY

NEW YORK STATE HOURLY WEATHER ROUNDUP
NATIONAL WEATHER SERVICE ALBANY NY
800 PM EDT THU SEP 29 2016

NOTE: "FAIR" INDICATES FEW OR NO CLOUDS BELOW 12,000 FEET WITH NO
SIGNIFICANT WEATHER AND/OR NO OBSTRUCTIONS TO VISIBILITY.

NYZ032-033-038>043-046>054-057>066-NYZ062>081-082-084-300100-
EAST


CITY           SKY/WX    TMP DP  RH WIND       PRES   REMARKS
ALBANY         MOCLDY    59  45  59 E6        30.43R
GLENS FALLS    PTCLDY    59  46  62 NE5       30.44R
POUGHKEEPSIE   PTCLDY    60  45  57 NE6       30.39R
NEWBURGH       MOCLDY    61  50  67 E16       30.40R
MONTGOMERY     CLOUDY    61  47  59 NE12      30.39R
WHITE PLAINS   PTCLDY    60  49  66 NE10      30.37R
ISLIP          CLOUDY    59  51  75 NE17G23   30.36S
NEW YORK CITY  CLOUDY    64  53  67 E17       30.35R
CENTRAL PARK   CLOUDY    62  52  69 E8G24     30.38R
$$

NYZ005>009-017-018-044>046-055-056-300100-
CENTRAL


CITY           SKY/WX    TMP DP  RH WIND       PRES   REMARKS
FULTON         CLOUDY    61  50  67 VRB5      30.38R
SYRACUSE       CLOUDY    59  49  69 NE10      30.36R
ROME           CLOUDY    59  49  69 E5        30.40R
ELMIRA         CLOUDY    59  52  77 NE7       30.33S
BINGHAMTON     CLOUDY    54  49  83 E6        30.35S
MONTICELLO     CLOUDY    55  45  67 E15G21    30.38R
$$

NYZ026>034-041>043-087-300100-
NORTH


CITY           SKY/WX    TMP DP  RH WIND       PRES   REMARKS
WATERTOWN      CLOUDY    61  50  67 NE10      30.39S
FORT DRUM      NOT AVBL
OGDENSBURG     FAIR      60  48  64 E12       30.45R
MASSENA        CLOUDY    60  46  59 NE10      30.49R
SARANAC LAKE   CLOUDY    55  46  71 NE8       30.46R
PLATTSBURGH    CLOUDY    62  48  60 N12       30.47R
$$

NYZ001>004-010>016-019>021-085-300100-
WEST


CITY           SKY/WX    TMP DP  RH WIND       PRES   REMARKS
NIAGARA FALLS  LGT RAIN  59  52  77 E13       30.31R
BUFFALO        CLOUDY    58  54  86 E13       30.30S
DUNKIRK        CLOUDY    62  57  83 NE13      30.24S
JAMESTOWN      CLOUDY    57  54  88 E9        30.25R
WELLSVILLE     CLOUDY    54  53  97 E10       30.33R FOG
ROCHESTER      CLOUDY    59  51  75 E13       30.36R
PENN YAN       CLOUDY    58  53  84 CALM      30.35S
$$

             KEY
       WCI = WIND CHILL INDEX
       VSB = VISIBILITY
       HX  = HEAT INDEX
$$




USA.gov is the U.S. government's official web portal to all federal, state and local government web resources and services.